Time,TemperatureF,DewpointF,PressureIn,WindDirection,WindDirectionDegrees,WindSpeedMPH,WindSpeedGustMPH,Humidity,HourlyPrecipIn,Conditions,Clouds,dailyrainin,SolarRadiationWatts/m^2,SoftwareType,DateUTC
2013-05-10 00:01:00,67.5,61.7,30.09,SE,145,0.0,1.0,82,0.00,,,0.00,0.0,meteohub,2013-05-10 04:01:00,
2013-05-10 00:02:00,67.5,61.3,30.09,SE,145,0.0,1.0,81,0.00,,,0.00,0.0,meteohub,2013-05-10 04:02:00,
2013-05-10 00:07:00,67.6,61.9,30.09,SE,145,0.0,1.0,82,0.00,,,0.00,0.0,meteohub,2013-05-10 04:07:00,
2013-05-10 00:12:00,68.0,62.2,30.09,SSE,152,0.0,1.0,82,0.00,,,0.00,0.0,meteohub,2013-05-10 04:12:00,
2013-05-10 00:17:00,68.4,62.6,30.09,SSE,152,0.0,3.0,82,0.00,,,0.00,0.0,meteohub,2013-05-10 04:17:00,
2013-05-10 00:22:00,68.4,62.2,30.09,SSE,152,0.0,3.0,81,0.00,,,0.00,0.0,meteohub,2013-05-10 04:22:00,
2013-05-10 00:27:00,68.4,62.2,30.09,SSE,152,0.0,3.0,81,0.00,,,0.00,0.0,meteohub,2013-05-10 04:27:00,
2013-05-10 00:32:00,68.4,62.2,30.09,SSE,152,0.0,1.0,81,0.00,,,0.00,0.0,meteohub,2013-05-10 04:32:00,
2013-05-10 00:37:00,68.2,62.4,30.09,SSE,152,0.0,1.0,82,0.00,,,0.00,0.0,meteohub,2013-05-10 04:37:00,
2013-05-10 00:42:00,67.8,62.1,30.09,SSE,152,0.0,1.0,82,0.00,,,0.00,0.0,meteohub,2013-05-10 04:42:00,
2013-05-10 00:47:00,67.6,61.9,30.08,SSE,152,0.0,1.0,82,0.00,,,0.00,0.0,meteohub,2013-05-10 04:47:00,
2013-05-10 00:52:00,67.3,61.9,30.08,SSE,152,0.0,1.0,83,0.00,,,0.00,0.0,meteohub,2013-05-10 04:52:00,
2013-05-10 00:57:00,67.1,61.7,30.09,SSE,152,0.0,0.0,83,0.00,,,0.00,0.0,meteohub,2013-05-10 04:57:00,
2013-05-10 01:02:00,66.7,61.7,30.09,SSE,152,0.0,0.0,84,0.00,,,0.00,0.0,meteohub,2013-05-10 05:02:00,
2013-05-10 01:07:00,66.6,61.5,30.08,SSE,152,0.0,0.0,84,0.00,,,0.00,0.0,meteohub,2013-05-10 05:07:00,
2013-05-10 01:12:00,66.4,61.7,30.09,SSE,152,0.0,0.0,85,0.00,,,0.00,0.0,meteohub,2013-05-10 05:12:00,
2013-05-10 01:17:00,66.2,61.5,30.09,SSE,152,0.0,1.0,85,0.00,,,0.00,0.0,meteohub,2013-05-10 05:17:00,
2013-05-10 01:22:00,66.4,61.7,30.08,SSE,152,0.0,1.0,85,0.00,,,0.00,0.0,meteohub,2013-05-10 05:22:00,
2013-05-10 01:27:00,66.4,61.7,30.08,SSE,152,0.0,1.0,85,0.00,,,0.00,0.0,meteohub,2013-05-10 05:27:00,
2013-05-10 01:32:00,66.4,61.7,30.08,SSE,152,0.0,1.0,85,0.00,,,0.00,0.0,meteohub,2013-05-10 05:32:00,
2013-05-10 01:37:00,66.4,61.7,30.08,SSE,152,0.0,1.0,85,0.00,,,0.00,0.0,meteohub,2013-05-10 05:37:00,
2013-05-10 01:42:00,66.4,61.3,30.08,SSE,152,0.0,1.0,84,0.00,,,0.00,0.0,meteohub,2013-05-10 05:42:00,
2013-05-10 01:47:00,66.4,61.3,30.08,SSE,152,0.0,2.0,84,0.00,,,0.00,0.0,meteohub,2013-05-10 05:47:00,
2013-05-10 01:52:00,66.4,61.0,30.07,SSE,152,0.0,2.0,83,0.00,,,0.00,0.0,meteohub,2013-05-10 05:52:00,
2013-05-10 01:57:00,66.7,61.3,30.07,SSE,152,0.0,2.0,83,0.00,,,0.00,0.0,meteohub,2013-05-10 05:57:00,
2013-05-10 02:02:00,66.9,61.2,30.07,SSE,152,0.0,2.0,82,0.00,,,0.00,0.0,meteohub,2013-05-10 06:02:00,
2013-05-10 02:07:00,66.9,61.2,30.07,SSE,152,0.0,2.0,82,0.00,,,0.00,0.0,meteohub,2013-05-10 06:07:00,
2013-05-10 02:12:00,66.7,61.0,30.07,SSE,152,0.0,2.0,82,0.00,,,0.00,0.0,meteohub,2013-05-10 06:12:00,
2013-05-10 02:17:00,66.6,61.0,30.07,SSE,152,0.0,1.0,82,0.00,,,0.00,0.0,meteohub,2013-05-10 06:17:00,
2013-05-10 02:22:00,66.6,61.0,30.06,SSE,152,0.0,1.0,82,0.00,,,0.00,0.0,meteohub,2013-05-10 06:22:00,
2013-05-10 02:27:00,66.4,60.8,30.07,SSE,152,0.0,1.0,82,0.00,,,0.00,0.0,meteohub,2013-05-10 06:27:00,
2013-05-10 02:33:00,66.4,60.8,30.07,SSE,152,0.0,1.0,82,0.00,,,0.00,0.0,meteohub,2013-05-10 06:33:00,
2013-05-10 02:38:00,66.2,60.6,30.07,SSE,152,0.0,0.0,82,0.00,,,0.00,0.0,meteohub,2013-05-10 06:38:00,
2013-05-10 02:43:00,66.4,60.8,30.07,SSE,152,0.0,0.0,82,0.00,,,0.00,0.0,meteohub,2013-05-10 06:43:00,
2013-05-10 02:48:00,66.4,60.4,30.07,SSE,152,0.0,1.0,81,0.00,,,0.00,0.0,meteohub,2013-05-10 06:48:00,
2013-05-10 02:53:00,66.6,59.9,30.06,SSE,152,0.0,2.0,79,0.00,,,0.00,0.0,meteohub,2013-05-10 06:53:00,
2013-05-10 02:58:00,67.0,60.0,30.07,SSE,153,0.0,-999.0,78,-99.99,,,0.00,0,weatherlink.com 1.10,2013-05-10 06:58:00,
2013-05-10 03:03:00,67.3,59.9,30.07,South,169,0.0,3.0,77,0.00,,,0.00,0.0,meteohub,2013-05-10 07:03:00,
2013-05-10 03:08:00,67.5,59.5,30.07,South,169,0.0,2.0,76,0.00,,,0.00,0.0,meteohub,2013-05-10 07:08:00,
2013-05-10 03:13:00,67.6,59.7,30.06,South,175,1.0,3.0,76,0.00,,,0.00,0.0,meteohub,2013-05-10 07:13:00,
2013-05-10 03:18:00,67.8,59.9,30.06,SSE,159,0.0,3.0,76,0.00,,,0.00,0.0,meteohub,2013-05-10 07:18:00,
2013-05-10 03:23:00,67.8,59.9,30.06,SSE,159,0.0,3.0,76,0.00,,,0.00,0.0,meteohub,2013-05-10 07:23:00,
2013-05-10 03:28:00,67.6,60.3,30.06,SSE,159,0.0,2.0,77,0.00,,,0.00,0.0,meteohub,2013-05-10 07:28:00,
2013-05-10 03:33:00,67.5,60.1,30.06,SSE,159,0.0,2.0,77,0.00,,,0.00,0.0,meteohub,2013-05-10 07:33:00,
2013-05-10 03:38:00,67.1,60.1,30.06,SW,221,0.0,1.0,78,0.00,,,0.00,0.0,meteohub,2013-05-10 07:38:00,
2013-05-10 03:43:00,66.9,60.3,30.06,SW,221,0.0,2.0,79,0.00,,,0.00,0.0,meteohub,2013-05-10 07:43:00,
2013-05-10 03:48:00,66.6,60.3,30.06,SW,221,0.0,2.0,80,0.00,,,0.00,0.0,meteohub,2013-05-10 07:48:00,
2013-05-10 03:53:00,66.4,60.4,30.06,SW,221,0.0,2.0,81,0.00,,,0.00,0.0,meteohub,2013-05-10 07:53:00,
2013-05-10 03:58:00,66.0,60.1,30.06,SSW,207,0.0,1.0,81,0.00,,,0.00,0.0,meteohub,2013-05-10 07:58:00,
2013-05-10 04:03:00,65.8,60.3,30.06,SSW,206,0.0,1.0,82,0.00,,,0.00,0.0,meteohub,2013-05-10 08:03:00,
2013-05-10 04:08:00,65.7,60.1,30.06,SSW,207,0.0,1.0,82,0.00,,,0.00,0.0,meteohub,2013-05-10 08:08:00,
2013-05-10 04:13:00,65.7,60.1,30.06,SSW,207,1.0,1.0,82,0.00,,,0.00,0.0,meteohub,2013-05-10 08:13:00,
2013-05-10 04:18:00,65.5,60.3,30.06,SSW,207,0.0,1.0,83,0.00,,,0.00,0.0,meteohub,2013-05-10 08:18:00,
2013-05-10 04:23:00,65.5,60.3,30.06,SSW,206,0.0,1.0,83,0.00,,,0.00,0.0,meteohub,2013-05-10 08:23:00,
2013-05-10 04:28:00,65.1,59.9,30.06,SSW,207,0.0,1.0,83,0.00,,,0.00,0.0,meteohub,2013-05-10 08:28:00,
2013-05-10 04:33:00,64.9,60.3,30.06,SSW,207,0.0,0.0,85,0.00,,,0.00,0.0,meteohub,2013-05-10 08:33:00,
2013-05-10 04:38:00,64.8,60.1,30.06,SSW,207,0.0,0.0,85,0.00,,,0.00,0.0,meteohub,2013-05-10 08:38:00,
2013-05-10 04:43:00,64.4,59.7,30.05,SSW,206,0.0,0.0,85,0.00,,,0.00,0.0,meteohub,2013-05-10 08:43:00,
2013-05-10 04:48:00,64.0,59.7,30.05,SSW,206,0.0,0.0,86,0.00,,,0.00,0.0,meteohub,2013-05-10 08:48:00,
2013-05-10 04:53:00,63.9,59.5,30.05,SSW,207,0.0,0.0,86,0.00,,,0.00,0.0,meteohub,2013-05-10 08:53:00,
2013-05-10 04:58:00,63.5,59.5,30.05,SSW,207,0.0,0.0,87,0.00,,,0.00,0.0,meteohub,2013-05-10 08:58:00,
2013-05-10 05:03:00,63.1,59.5,30.05,SSW,206,0.0,0.0,88,0.00,,,0.00,0.0,meteohub,2013-05-10 09:03:00,
2013-05-10 05:08:00,62.8,59.2,30.05,SSW,207,0.0,0.0,88,0.00,,,0.00,0.0,meteohub,2013-05-10 09:08:00,
2013-05-10 05:13:00,62.4,59.2,30.04,SSW,206,0.0,0.0,89,0.00,,,0.00,0.0,meteohub,2013-05-10 09:13:00,
2013-05-10 05:18:00,62.2,59.2,30.04,SSW,206,0.0,0.0,90,0.00,,,0.00,0.0,meteohub,2013-05-10 09:18:00,
2013-05-10 05:23:00,61.9,59.0,30.04,SSW,207,0.0,0.0,90,0.00,,,0.00,0.0,meteohub,2013-05-10 09:23:00,
2013-05-10 05:28:00,61.5,58.8,30.04,SSW,207,0.0,0.0,91,0.00,,,0.00,0.0,meteohub,2013-05-10 09:28:00,
2013-05-10 05:33:00,61.3,58.6,30.04,SSW,206,0.0,0.0,91,0.00,,,0.00,0.0,meteohub,2013-05-10 09:33:00,
2013-05-10 05:38:00,61.2,58.5,30.04,SSW,207,0.0,0.0,91,0.00,,,0.00,0.0,meteohub,2013-05-10 09:38:00,
2013-05-10 05:43:00,61.0,58.6,30.04,SSW,207,0.0,0.0,92,0.00,,,0.00,0.0,meteohub,2013-05-10 09:43:00,
2013-05-10 05:48:00,60.6,58.3,30.04,SSW,207,0.0,0.0,92,0.00,,,0.00,0.0,meteohub,2013-05-10 09:48:00,
2013-05-10 05:53:00,60.6,58.6,30.04,SSW,206,0.0,0.0,93,0.00,,,0.00,0.0,meteohub,2013-05-10 09:53:00,
2013-05-10 05:58:00,60.6,58.6,30.04,SSW,207,0.0,0.0,93,0.00,,,0.00,0.0,meteohub,2013-05-10 09:58:00,
2013-05-10 06:03:00,60.6,58.8,30.04,SSW,207,0.0,0.0,94,0.00,,,0.00,0.0,meteohub,2013-05-10 10:03:00,
2013-05-10 06:08:00,60.6,58.8,30.04,SSW,207,0.0,0.0,94,0.00,,,0.00,0.0,meteohub,2013-05-10 10:08:00,
2013-05-10 06:13:00,60.4,58.6,30.04,SSW,207,0.0,0.0,94,0.00,,,0.00,0.0,meteohub,2013-05-10 10:13:00,
2013-05-10 06:18:00,60.3,58.5,30.04,SSW,206,0.0,0.0,94,0.00,,,0.00,0.0,meteohub,2013-05-10 10:18:00,
2013-05-10 06:23:00,60.1,58.3,30.04,SSW,206,0.0,0.0,94,0.00,,,0.00,0.0,meteohub,2013-05-10 10:23:00,
2013-05-10 06:28:00,59.7,58.3,30.05,SSW,206,0.0,0.0,95,0.00,,,0.00,0.0,meteohub,2013-05-10 10:28:00,
2013-05-10 06:33:00,59.5,58.1,30.05,SSW,207,0.0,0.0,95,0.00,,,0.00,0.0,meteohub,2013-05-10 10:33:00,
2013-05-10 06:38:00,59.5,58.1,30.05,SSW,207,0.0,0.0,95,0.00,,,0.00,5.0,meteohub,2013-05-10 10:38:00,
2013-05-10 06:43:00,59.4,57.9,30.05,SSW,207,0.0,0.0,95,0.00,,,0.00,9.0,meteohub,2013-05-10 10:43:00,
2013-05-10 06:48:00,59.4,57.9,30.05,SSW,206,0.0,0.0,95,0.00,,,0.00,12.0,meteohub,2013-05-10 10:48:00,
2013-05-10 06:53:00,59.4,57.9,30.05,SSW,206,0.0,0.0,95,0.00,,,0.00,16.0,meteohub,2013-05-10 10:53:00,
2013-05-10 06:58:00,59.3,58.0,30.05,SSW,207,0.0,-999.0,95,-99.99,,,0.00,28,weatherlink.com 1.10,2013-05-10 10:58:00,
2013-05-10 07:03:00,59.5,58.1,30.05,SSW,206,0.0,0.0,95,0.00,,,0.00,42.0,meteohub,2013-05-10 11:03:00,
2013-05-10 07:08:00,59.7,58.6,30.05,SSW,206,0.0,0.0,96,0.00,,,0.00,33.0,meteohub,2013-05-10 11:08:00,
2013-05-10 07:13:00,60.1,59.0,30.05,SSW,207,0.0,0.0,96,0.00,,,0.00,76.0,meteohub,2013-05-10 11:13:00,
2013-05-10 07:18:00,60.4,59.4,30.05,SSW,207,0.0,0.0,96,0.00,,,0.00,90.0,meteohub,2013-05-10 11:18:00,
2013-05-10 07:23:00,60.8,59.7,30.05,SSW,206,0.0,0.0,96,0.00,,,0.00,105.0,meteohub,2013-05-10 11:23:00,
2013-05-10 07:28:00,61.3,59.9,30.04,SSW,206,0.0,0.0,95,0.00,,,0.00,123.0,meteohub,2013-05-10 11:28:00,
2013-05-10 07:33:00,62.1,60.6,30.05,SSW,207,0.0,0.0,95,0.00,,,0.00,139.0,meteohub,2013-05-10 11:33:00,
2013-05-10 07:38:00,62.8,61.0,30.05,SSW,207,0.0,0.0,94,0.00,,,0.00,156.0,meteohub,2013-05-10 11:38:00,
2013-05-10 07:43:00,63.5,61.5,30.05,SSW,206,0.0,0.0,93,0.00,,,0.00,174.0,meteohub,2013-05-10 11:43:00,
2013-05-10 07:48:00,64.6,62.4,30.05,SSW,207,0.0,0.0,93,0.00,,,0.00,192.0,meteohub,2013-05-10 11:48:00,
2013-05-10 07:53:00,65.7,63.0,30.05,SSW,207,0.0,0.0,91,0.00,,,0.00,207.0,meteohub,2013-05-10 11:53:00,
2013-05-10 07:58:00,66.6,63.1,30.05,SSW,206,0.0,0.0,89,0.00,,,0.00,221.0,meteohub,2013-05-10 11:58:00,
2013-05-10 08:03:00,67.6,63.7,30.05,SSW,207,0.0,0.0,87,0.00,,,0.00,241.0,meteohub,2013-05-10 12:03:00,
2013-05-10 08:08:00,68.7,64.0,30.05,SSW,206,0.0,0.0,85,0.00,,,0.00,258.0,meteohub,2013-05-10 12:08:00,
2013-05-10 08:13:00,69.3,63.9,30.05,SSW,206,0.0,0.0,83,0.00,,,0.00,278.0,meteohub,2013-05-10 12:13:00,
2013-05-10 08:18:00,70.0,64.6,30.05,SSW,207,0.0,0.0,83,0.00,,,0.00,295.0,meteohub,2013-05-10 12:18:00,
2013-05-10 08:23:00,70.3,64.2,30.05,SSE,160,0.0,0.0,81,0.00,,,0.00,313.0,meteohub,2013-05-10 12:23:00,
2013-05-10 08:28:00,70.9,64.8,30.05,SSE,160,0.0,2.0,81,0.00,,,0.00,330.0,meteohub,2013-05-10 12:28:00,
2013-05-10 08:33:00,71.4,65.7,30.06,SSE,160,0.0,2.0,82,0.00,,,0.00,350.0,meteohub,2013-05-10 12:33:00,
2013-05-10 08:38:00,72.0,64.8,30.06,SSE,160,0.0,2.0,78,0.00,,,0.00,364.0,meteohub,2013-05-10 12:38:00,
2013-05-10 08:43:00,72.3,64.8,30.06,SSE,160,0.0,1.0,77,0.00,,,0.00,383.0,meteohub,2013-05-10 12:43:00,
2013-05-10 08:48:00,72.9,64.8,30.06,SSE,160,1.0,2.0,76,0.00,,,0.00,403.0,meteohub,2013-05-10 12:48:00,
2013-05-10 08:53:00,73.6,64.8,30.06,SSE,160,0.0,2.0,74,0.00,,,0.00,422.0,meteohub,2013-05-10 12:53:00,
2013-05-10 08:58:00,73.8,65.3,30.06,SSE,160,0.0,2.0,75,0.00,,,0.00,441.0,meteohub,2013-05-10 12:58:00,
2013-05-10 09:03:00,74.5,65.3,30.06,SSE,160,0.0,1.0,73,0.00,,,0.00,459.0,meteohub,2013-05-10 13:03:00,
2013-05-10 09:08:00,74.8,64.8,30.07,SSE,160,0.0,1.0,71,0.00,,,0.00,478.0,meteohub,2013-05-10 13:08:00,
2013-05-10 09:13:00,75.4,65.3,30.06,SSE,160,0.0,1.0,71,0.00,,,0.00,496.0,meteohub,2013-05-10 13:13:00,
2013-05-10 09:18:00,75.7,65.3,30.06,SSE,160,0.0,1.0,70,0.00,,,0.00,513.0,meteohub,2013-05-10 13:18:00,
2013-05-10 09:23:00,76.1,66.0,30.06,SSE,160,0.0,1.0,71,0.00,,,0.00,529.0,meteohub,2013-05-10 13:23:00,
2013-05-10 09:28:00,76.3,65.8,30.06,SSE,160,0.0,0.0,70,0.00,,,0.00,543.0,meteohub,2013-05-10 13:28:00,
2013-05-10 09:33:00,76.8,65.8,30.06,SSE,160,0.0,0.0,69,0.00,,,0.00,563.0,meteohub,2013-05-10 13:33:00,
2013-05-10 09:38:00,77.5,67.5,30.06,SSE,160,0.0,0.0,71,0.00,,,0.00,580.0,meteohub,2013-05-10 13:38:00,
2013-05-10 09:43:00,77.9,66.9,30.06,SSE,160,0.0,1.0,69,0.00,,,0.00,598.0,meteohub,2013-05-10 13:43:00,
2013-05-10 09:48:00,77.7,65.8,30.06,SE,125,0.0,1.0,67,0.00,,,0.00,612.0,meteohub,2013-05-10 13:48:00,
2013-05-10 09:53:00,78.1,66.7,30.06,SE,125,0.0,3.0,68,0.00,,,0.00,631.0,meteohub,2013-05-10 13:53:00,
2013-05-10 09:58:00,78.6,66.4,30.06,SE,125,0.0,3.0,66,0.00,,,0.00,643.0,meteohub,2013-05-10 13:58:00,
2013-05-10 10:03:00,79.3,66.6,30.06,SE,125,0.0,3.0,65,0.00,,,0.00,659.0,meteohub,2013-05-10 14:03:00,
2013-05-10 10:08:00,79.9,67.1,30.06,SE,125,0.0,1.0,65,0.00,,,0.00,675.0,meteohub,2013-05-10 14:08:00,
2013-05-10 10:13:00,80.2,66.6,30.06,SE,125,0.0,1.0,63,0.00,,,0.00,693.0,meteohub,2013-05-10 14:13:00,
2013-05-10 10:18:00,80.2,66.9,30.06,SE,140,0.0,1.0,64,0.00,,,0.00,708.0,meteohub,2013-05-10 14:18:00,
2013-05-10 10:23:00,80.4,64.8,30.05,ESE,117,0.0,1.0,59,0.00,,,0.00,724.0,meteohub,2013-05-10 14:23:00,
2013-05-10 10:28:00,80.4,66.2,30.06,SSW,194,0.0,4.0,62,0.00,,,0.00,733.0,meteohub,2013-05-10 14:28:00,
2013-05-10 10:33:00,80.8,66.9,30.05,WNW,292,0.0,4.0,63,0.00,,,0.00,749.0,meteohub,2013-05-10 14:33:00,
2013-05-10 10:38:00,81.1,66.4,30.05,WNW,291,0.0,4.0,61,0.00,,,0.00,763.0,meteohub,2013-05-10 14:38:00,
2013-05-10 10:43:00,81.7,66.0,30.05,SW,225,0.0,3.0,59,0.00,,,0.00,779.0,meteohub,2013-05-10 14:43:00,
2013-05-10 10:48:00,82.0,67.3,30.05,SSW,201,1.0,3.0,61,0.00,,,0.00,793.0,meteohub,2013-05-10 14:48:00,
2013-05-10 10:53:00,81.7,65.5,30.06,ESE,110,0.0,4.0,58,0.00,,,0.00,803.0,meteohub,2013-05-10 14:53:00,
2013-05-10 10:58:00,82.0,65.3,30.06,ESE,117,0.0,7.0,57,0.00,,,0.00,816.0,meteohub,2013-05-10 14:58:00,
2013-05-10 11:04:00,82.6,66.4,30.06,ESE,117,0.0,7.0,58,0.00,,,0.00,824.0,meteohub,2013-05-10 15:04:00,
2013-05-10 11:09:00,82.6,66.7,30.06,ESE,113,1.0,7.0,59,0.00,,,0.00,837.0,meteohub,2013-05-10 15:09:00,
2013-05-10 11:14:00,82.8,67.5,30.06,SSE,150,0.0,4.0,60,0.00,,,0.00,849.0,meteohub,2013-05-10 15:14:00,
2013-05-10 11:19:00,82.8,66.6,30.06,South,177,0.0,4.0,58,0.00,,,0.00,865.0,meteohub,2013-05-10 15:19:00,
2013-05-10 11:24:00,83.1,67.8,30.07,WSW,238,3.0,5.0,60,0.00,,,0.00,875.0,meteohub,2013-05-10 15:24:00,
2013-05-10 11:29:00,82.8,64.9,30.07,South,173,2.0,5.0,55,0.00,,,0.00,882.0,meteohub,2013-05-10 15:29:00,
2013-05-10 11:34:00,82.8,64.4,30.07,ESE,121,0.0,7.0,54,0.00,,,0.00,889.0,meteohub,2013-05-10 15:34:00,
2013-05-10 11:39:00,82.9,64.6,30.07,SSE,153,5.0,7.0,54,0.00,,,0.00,898.0,meteohub,2013-05-10 15:39:00,
2013-05-10 11:44:00,82.8,65.5,30.07,East,100,1.0,7.0,56,0.00,,,0.00,907.0,meteohub,2013-05-10 15:44:00,
2013-05-10 11:49:00,82.6,65.8,30.07,SE,145,2.0,8.0,57,0.00,,,0.00,918.0,meteohub,2013-05-10 15:49:00,
2013-05-10 11:54:00,82.9,66.2,30.07,South,186,4.0,8.0,57,0.00,,,0.00,923.0,meteohub,2013-05-10 15:54:00,
2013-05-10 11:59:00,83.1,66.7,30.07,SE,142,4.0,8.0,58,0.00,,,0.00,928.0,meteohub,2013-05-10 15:59:00,
2013-05-10 12:04:00,83.1,66.4,30.07,South,187,4.0,8.0,57,0.00,,,0.00,940.0,meteohub,2013-05-10 16:04:00,
2013-05-10 12:09:00,82.9,67.1,30.07,ESE,107,1.0,9.0,59,0.00,,,0.00,942.0,meteohub,2013-05-10 16:09:00,
2013-05-10 12:14:00,82.8,66.6,30.08,SE,140,0.0,9.0,58,0.00,,,0.00,953.0,meteohub,2013-05-10 16:14:00,
2013-05-10 12:19:00,82.9,66.6,30.08,SSW,195,0.0,9.0,58,0.00,,,0.00,951.0,meteohub,2013-05-10 16:19:00,
2013-05-10 12:24:00,83.7,68.4,30.07,East,90,0.0,9.0,60,0.00,,,0.00,958.0,meteohub,2013-05-10 16:24:00,
2013-05-10 12:29:00,83.5,65.1,30.07,South,187,2.0,9.0,54,0.00,,,0.00,960.0,meteohub,2013-05-10 16:29:00,
2013-05-10 12:34:00,83.1,65.8,30.07,SSE,148,1.0,8.0,56,0.00,,,0.00,956.0,meteohub,2013-05-10 16:34:00,
2013-05-10 12:39:00,83.5,66.6,30.07,SE,134,5.0,10.0,57,0.00,,,0.00,972.0,meteohub,2013-05-10 16:39:00,
2013-05-10 12:44:00,83.1,66.4,30.07,ESE,121,1.0,10.0,57,0.00,,,0.00,974.0,meteohub,2013-05-10 16:44:00,
2013-05-10 12:49:00,83.7,66.7,30.08,SE,144,5.0,10.0,57,0.00,,,0.00,970.0,meteohub,2013-05-10 16:49:00,
2013-05-10 12:54:00,83.8,66.4,30.07,SSE,163,1.0,9.0,56,0.00,,,0.00,984.0,meteohub,2013-05-10 16:54:00,
2013-05-10 12:59:00,83.7,66.7,30.07,SSE,159,3.0,8.0,57,0.00,,,0.00,981.0,meteohub,2013-05-10 16:59:00,
2013-05-10 13:04:00,83.8,66.4,30.07,SSE,161,1.0,9.0,56,0.00,,,0.00,988.0,meteohub,2013-05-10 17:04:00,
2013-05-10 13:09:00,83.7,67.3,30.07,SSW,205,1.0,9.0,58,0.00,,,0.00,979.0,meteohub,2013-05-10 17:09:00,
2013-05-10 13:14:00,83.8,67.5,30.07,ESE,120,4.0,9.0,58,0.00,,,0.00,983.0,meteohub,2013-05-10 17:14:00,
2013-05-10 13:19:00,83.5,68.2,30.06,ENE,57,4.0,9.0,60,0.00,,,0.00,984.0,meteohub,2013-05-10 17:19:00,
2013-05-10 13:24:00,83.7,67.3,30.06,SE,140,3.0,11.0,58,0.00,,,0.00,983.0,meteohub,2013-05-10 17:24:00,
2013-05-10 13:29:00,83.7,68.4,30.06,ESE,103,3.0,11.0,60,0.00,,,0.00,976.0,meteohub,2013-05-10 17:29:00,
2013-05-10 13:34:00,83.3,66.6,30.06,SSE,163,3.0,11.0,57,0.00,,,0.00,958.0,meteohub,2013-05-10 17:34:00,
2013-05-10 13:39:00,83.3,66.0,30.06,SSW,203,5.0,8.0,56,0.00,,,0.00,944.0,meteohub,2013-05-10 17:39:00,
2013-05-10 13:44:00,83.5,66.6,30.06,SE,126,6.0,9.0,57,0.00,,,0.00,944.0,meteohub,2013-05-10 17:44:00,
2013-05-10 13:49:00,83.5,65.7,30.06,SSE,161,1.0,9.0,55,0.00,,,0.00,958.0,meteohub,2013-05-10 17:49:00,
2013-05-10 13:54:00,83.7,66.7,30.06,East,87,3.0,9.0,57,0.00,,,0.00,951.0,meteohub,2013-05-10 17:54:00,
2013-05-10 13:59:00,83.7,65.8,30.06,SW,217,7.0,10.0,55,0.00,,,0.00,953.0,meteohub,2013-05-10 17:59:00,
2013-05-10 14:04:00,83.8,66.0,30.05,SE,133,3.0,10.0,55,0.00,,,0.00,947.0,meteohub,2013-05-10 18:04:00,
2013-05-10 14:09:00,83.8,64.9,30.05,SSE,152,4.0,9.0,53,0.00,,,0.00,958.0,meteohub,2013-05-10 18:09:00,
2013-05-10 14:14:00,84.0,64.6,30.05,East,83,2.0,9.0,52,0.00,,,0.00,954.0,meteohub,2013-05-10 18:14:00,
2013-05-10 14:19:00,84.0,64.6,30.05,East,99,2.0,10.0,52,0.00,,,0.00,949.0,meteohub,2013-05-10 18:19:00,
2013-05-10 14:24:00,84.0,63.9,30.05,ESE,111,0.0,10.0,51,0.00,,,0.00,939.0,meteohub,2013-05-10 18:24:00,
2013-05-10 14:29:00,84.2,65.3,30.05,South,182,4.0,10.0,53,0.00,,,0.00,942.0,meteohub,2013-05-10 18:29:00,
2013-05-10 14:34:00,84.4,66.4,30.05,East,99,6.0,8.0,55,0.00,,,0.00,930.0,meteohub,2013-05-10 18:34:00,
2013-05-10 14:39:00,84.0,64.6,30.05,SSE,161,0.0,9.0,52,0.00,,,0.00,940.0,meteohub,2013-05-10 18:39:00,
2013-05-10 14:44:00,84.0,65.7,30.04,ENE,74,2.0,11.0,54,0.00,,,0.00,870.0,meteohub,2013-05-10 18:44:00,
2013-05-10 14:49:00,84.0,65.7,30.04,ESE,120,5.0,11.0,54,0.00,,,0.00,861.0,meteohub,2013-05-10 18:49:00,
2013-05-10 14:54:00,84.2,65.7,30.04,South,191,2.0,11.0,54,0.00,,,0.00,853.0,meteohub,2013-05-10 18:54:00,
2013-05-10 14:59:00,84.4,65.8,30.04,East,88,0.0,8.0,54,0.00,,,0.00,842.0,meteohub,2013-05-10 18:59:00,
2013-05-10 15:04:00,84.0,64.6,30.04,East,82,1.0,8.0,52,0.00,,,0.00,830.0,meteohub,2013-05-10 19:04:00,
2013-05-10 15:09:00,83.7,64.2,30.03,ESE,123,2.0,9.0,52,0.00,,,0.00,800.0,meteohub,2013-05-10 19:09:00,
2013-05-10 15:14:00,83.7,64.8,30.03,SE,144,2.0,9.0,53,0.00,,,0.00,819.0,meteohub,2013-05-10 19:14:00,
2013-05-10 15:19:00,83.8,64.9,30.03,ENE,78,0.0,10.0,53,0.00,,,0.00,812.0,meteohub,2013-05-10 19:19:00,
2013-05-10 15:24:00,84.0,63.9,30.03,SSE,154,2.0,10.0,51,0.00,,,0.00,765.0,meteohub,2013-05-10 19:24:00,
2013-05-10 15:29:00,83.7,63.7,30.03,ESE,122,4.0,11.0,51,0.00,,,0.00,772.0,meteohub,2013-05-10 19:29:00,
2013-05-10 15:34:00,83.3,62.8,30.02,SSE,150,7.0,11.0,50,0.00,,,0.00,740.0,meteohub,2013-05-10 19:34:00,
2013-05-10 15:39:00,83.5,63.5,30.02,SE,136,2.0,11.0,51,0.00,,,0.00,744.0,meteohub,2013-05-10 19:39:00,
2013-05-10 15:44:00,84.0,64.6,30.01,ENE,64,0.0,11.0,52,0.00,,,0.00,756.0,meteohub,2013-05-10 19:44:00,
2013-05-10 15:49:00,83.8,63.9,30.01,SSW,200,0.0,11.0,51,0.00,,,0.00,717.0,meteohub,2013-05-10 19:49:00,
2013-05-10 15:54:00,83.3,63.3,30.01,SSE,157,7.0,9.0,51,0.00,,,0.00,696.0,meteohub,2013-05-10 19:54:00,
2013-05-10 15:59:00,82.9,63.0,30.01,ESE,108,0.0,10.0,51,0.00,,,0.00,691.0,meteohub,2013-05-10 19:59:00,
2013-05-10 16:04:00,82.8,63.3,30.01,SSE,168,1.0,11.0,52,0.00,,,0.00,684.0,meteohub,2013-05-10 20:04:00,
2013-05-10 16:09:00,82.8,63.3,30.00,SE,135,5.0,11.0,52,0.00,,,0.00,613.0,meteohub,2013-05-10 20:09:00,
2013-05-10 16:14:00,82.6,62.6,30.00,SE,126,0.0,12.0,51,0.00,,,0.00,642.0,meteohub,2013-05-10 20:14:00,
2013-05-10 16:19:00,82.6,63.7,30.00,ESE,104,3.0,12.0,53,0.00,,,0.00,638.0,meteohub,2013-05-10 20:19:00,
2013-05-10 16:24:00,82.6,63.7,30.00,East,81,2.0,12.0,53,0.00,,,0.00,599.0,meteohub,2013-05-10 20:24:00,
2013-05-10 16:29:00,82.8,64.4,30.00,East,90,5.0,11.0,54,0.00,,,0.00,580.0,meteohub,2013-05-10 20:29:00,
2013-05-10 16:34:00,82.4,63.0,30.00,South,187,1.0,11.0,52,0.00,,,0.00,503.0,meteohub,2013-05-10 20:34:00,
2013-05-10 16:39:00,82.6,63.7,30.00,SE,134,1.0,14.0,53,0.00,,,0.00,541.0,meteohub,2013-05-10 20:39:00,
2013-05-10 16:44:00,81.9,62.4,29.99,SSE,154,4.0,14.0,52,0.00,,,0.00,522.0,meteohub,2013-05-10 20:44:00,
2013-05-10 16:49:00,81.9,61.9,29.99,SE,130,2.0,13.0,51,0.00,,,0.00,508.0,meteohub,2013-05-10 20:49:00,
2013-05-10 16:54:00,81.9,61.9,29.99,SSW,207,3.0,13.0,51,0.00,,,0.00,267.0,meteohub,2013-05-10 20:54:00,
2013-05-10 16:59:00,81.7,62.4,29.99,ESE,117,1.0,13.0,52,0.00,,,0.00,387.0,meteohub,2013-05-10 20:59:00,
2013-05-10 17:04:00,81.3,63.1,29.99,SSW,206,4.0,9.0,54,0.00,,,0.00,466.0,meteohub,2013-05-10 21:04:00,
2013-05-10 17:09:00,81.3,63.1,29.99,SE,138,0.0,11.0,54,0.00,,,0.00,209.0,meteohub,2013-05-10 21:09:00,
2013-05-10 17:14:00,81.1,63.5,29.99,SE,136,1.0,13.0,55,0.00,,,0.00,207.0,meteohub,2013-05-10 21:14:00,
2013-05-10 17:19:00,81.0,62.8,29.99,South,183,2.0,13.0,54,0.00,,,0.00,185.0,meteohub,2013-05-10 21:19:00,
2013-05-10 17:24:00,80.8,63.7,29.99,East,101,1.0,14.0,56,0.00,,,0.00,207.0,meteohub,2013-05-10 21:24:00,
2013-05-10 17:29:00,80.6,63.5,29.99,South,174,2.0,14.0,56,0.00,,,0.00,200.0,meteohub,2013-05-10 21:29:00,
2013-05-10 17:34:00,80.4,62.8,29.98,SSE,151,0.0,15.0,55,0.00,,,0.00,181.0,meteohub,2013-05-10 21:34:00,
2013-05-10 17:39:00,80.4,63.3,29.98,SSW,205,5.0,15.0,56,0.00,,,0.00,176.0,meteohub,2013-05-10 21:39:00,
2013-05-10 17:44:00,80.4,63.9,29.98,ESE,105,0.0,15.0,57,0.00,,,0.00,135.0,meteohub,2013-05-10 21:44:00,
2013-05-10 17:49:00,80.1,63.9,29.98,SE,127,0.0,12.0,58,0.00,,,0.00,139.0,meteohub,2013-05-10 21:49:00,
2013-05-10 17:54:00,79.9,64.8,29.98,East,90,6.0,9.0,60,0.00,,,0.00,148.0,meteohub,2013-05-10 21:54:00,
2013-05-10 17:58:00,79.5,64.9,29.98,SE,126,2.0,7.0,61,0.00,,,0.00,149.0,meteohub,2013-05-10 21:58:00,
2013-05-10 17:59:00,79.3,65.1,29.98,SE,125,1.0,7.0,62,0.00,,,0.00,149.0,meteohub,2013-05-10 21:59:00,
2013-05-10 18:04:00,79.2,65.5,29.98,SSE,150,1.0,8.0,63,0.00,,,0.00,156.0,meteohub,2013-05-10 22:04:00,
2013-05-10 18:09:00,79.0,63.9,29.97,SE,130,1.0,8.0,60,0.00,,,0.00,149.0,meteohub,2013-05-10 22:09:00,
2013-05-10 18:14:00,78.8,64.8,29.97,ESE,123,5.0,8.0,62,0.00,,,0.00,148.0,meteohub,2013-05-10 22:14:00,
2013-05-10 18:19:00,78.6,64.0,29.97,ENE,78,5.0,7.0,61,0.00,,,0.00,146.0,meteohub,2013-05-10 22:19:00,
2013-05-10 18:24:00,78.3,64.6,29.97,SE,125,2.0,7.0,63,0.00,,,0.00,141.0,meteohub,2013-05-10 22:24:00,
2013-05-10 18:29:00,77.9,64.8,29.97,ESE,121,7.0,9.0,64,0.00,,,0.00,134.0,meteohub,2013-05-10 22:29:00,
2013-05-10 18:34:00,77.5,64.8,29.97,ESE,106,2.0,9.0,65,0.00,,,0.00,127.0,meteohub,2013-05-10 22:34:00,
2013-05-10 18:39:00,77.5,65.3,29.97,SE,125,1.0,9.0,66,0.00,,,0.00,109.0,meteohub,2013-05-10 22:39:00,
2013-05-10 18:44:00,77.4,65.5,29.97,SSE,159,2.0,7.0,67,0.00,,,0.00,98.0,meteohub,2013-05-10 22:44:00,
2013-05-10 18:49:00,77.2,65.8,29.97,South,188,2.0,7.0,68,0.00,,,0.00,90.0,meteohub,2013-05-10 22:49:00,
2013-05-10 18:54:00,76.8,65.8,29.97,South,173,0.0,9.0,69,0.00,,,0.00,79.0,meteohub,2013-05-10 22:54:00,
2013-05-10 18:59:00,76.6,66.2,29.97,South,171,1.0,9.0,70,0.00,,,0.00,70.0,meteohub,2013-05-10 22:59:00,
2013-05-10 19:04:00,76.5,66.7,29.97,SW,219,3.0,7.0,72,0.00,,,0.00,62.0,meteohub,2013-05-10 23:04:00,
2013-05-10 19:09:00,76.3,66.9,29.97,ESE,106,1.0,7.0,73,0.00,,,0.00,58.0,meteohub,2013-05-10 23:09:00,
2013-05-10 19:14:00,75.9,67.1,29.97,East,94,1.0,7.0,74,0.00,,,0.00,54.0,meteohub,2013-05-10 23:14:00,
2013-05-10 19:19:00,75.7,67.3,29.97,SSE,148,3.0,6.0,75,0.00,,,0.00,53.0,meteohub,2013-05-10 23:19:00,
2013-05-10 19:24:00,75.6,67.8,29.97,SSW,209,6.0,7.0,77,0.00,,,0.00,51.0,meteohub,2013-05-10 23:24:00,
2013-05-10 19:29:00,75.4,68.4,29.97,SSE,153,0.0,8.0,79,0.00,,,0.00,46.0,meteohub,2013-05-10 23:29:00,
2013-05-10 19:34:00,75.0,68.4,29.97,SSW,192,2.0,9.0,80,0.00,,,0.00,40.0,meteohub,2013-05-10 23:34:00,
2013-05-10 19:39:00,74.8,68.5,29.97,SE,144,3.0,9.0,81,0.00,,,0.00,33.0,meteohub,2013-05-10 23:39:00,
2013-05-10 19:44:00,74.7,69.1,29.97,SSE,150,0.0,7.0,83,0.00,,,0.00,28.0,meteohub,2013-05-10 23:44:00,
2013-05-10 19:49:00,74.5,68.9,29.97,SSE,157,1.0,7.0,83,0.00,,,0.00,21.0,meteohub,2013-05-10 23:49:00,
2013-05-10 19:54:00,74.1,68.9,29.97,SE,145,0.0,10.0,84,0.00,,,0.00,18.0,meteohub,2013-05-10 23:54:00,
2013-05-10 19:59:00,73.9,69.1,29.97,ESE,107,1.0,10.0,85,0.00,,,0.00,12.0,meteohub,2013-05-10 23:59:00,
2013-05-10 20:04:00,73.8,68.9,29.97,East,82,0.0,10.0,85,0.00,,,0.00,5.0,meteohub,2013-05-11 00:04:00,
2013-05-10 20:09:00,73.8,69.3,29.98,SE,134,0.0,5.0,86,0.00,,,0.00,0.0,meteohub,2013-05-11 00:09:00,
2013-05-10 20:14:00,73.6,69.4,29.97,SE,143,0.0,5.0,87,0.00,,,0.00,0.0,meteohub,2013-05-11 00:14:00,
2013-05-10 20:19:00,73.2,69.1,29.97,SE,140,0.0,5.0,87,0.00,,,0.00,0.0,meteohub,2013-05-11 00:19:00,
2013-05-10 20:24:00,73.2,69.4,29.97,SSE,150,0.0,5.0,88,0.00,,,0.00,0.0,meteohub,2013-05-11 00:24:00,
2013-05-10 20:29:00,73.0,69.3,29.97,South,175,1.0,7.0,88,0.00,,,0.00,0.0,meteohub,2013-05-11 00:29:00,
2013-05-10 20:34:00,73.0,69.3,29.98,ESE,121,0.0,7.0,88,0.00,,,0.00,0.0,meteohub,2013-05-11 00:34:00,
2013-05-10 20:39:00,73.0,69.6,29.98,ESE,115,0.0,7.0,89,0.00,,,0.00,0.0,meteohub,2013-05-11 00:39:00,
2013-05-10 20:44:00,72.9,69.4,29.98,ESE,121,2.0,11.0,89,0.00,,,0.00,0.0,meteohub,2013-05-11 00:44:00,
2013-05-10 20:49:00,72.9,69.8,29.98,SSE,152,0.0,11.0,90,0.00,,,0.00,0.0,meteohub,2013-05-11 00:49:00,
2013-05-10 20:54:00,72.7,69.6,29.98,SE,138,2.0,6.0,90,0.00,,,0.00,0.0,meteohub,2013-05-11 00:54:00,
2013-05-10 20:59:00,72.7,69.6,29.98,SE,135,1.0,6.0,90,0.00,,,0.00,0.0,meteohub,2013-05-11 00:59:00,
2013-05-10 21:04:00,72.7,69.6,29.98,SE,138,0.0,5.0,90,0.00,,,0.00,0.0,meteohub,2013-05-11 01:04:00,
2013-05-10 21:09:00,72.7,69.6,29.98,ESE,118,2.0,8.0,90,0.00,,,0.00,0.0,meteohub,2013-05-11 01:09:00,
2013-05-10 21:14:00,72.7,69.6,29.99,SE,138,0.0,8.0,90,0.00,,,0.00,0.0,meteohub,2013-05-11 01:14:00,
2013-05-10 21:19:00,72.7,69.6,29.99,South,189,2.0,7.0,90,0.00,,,0.00,0.0,meteohub,2013-05-11 01:19:00,
2013-05-10 21:24:00,72.7,69.6,29.98,SSE,163,0.0,7.0,90,0.00,,,0.00,0.0,meteohub,2013-05-11 01:24:00,
2013-05-10 21:29:00,72.7,69.6,29.99,SSE,165,0.0,6.0,90,0.00,,,0.00,0.0,meteohub,2013-05-11 01:29:00,
2013-05-10 21:34:00,72.7,69.6,29.99,ESE,114,3.0,6.0,90,0.00,,,0.00,0.0,meteohub,2013-05-11 01:34:00,
2013-05-10 21:39:00,72.7,69.6,30.00,SSE,150,1.0,5.0,90,0.00,,,0.00,0.0,meteohub,2013-05-11 01:39:00,
2013-05-10 21:44:00,72.9,69.8,29.99,SSE,160,0.0,5.0,90,0.00,,,0.00,0.0,meteohub,2013-05-11 01:44:00,
2013-05-10 21:49:00,72.9,69.8,29.99,SE,146,1.0,4.0,90,0.00,,,0.00,0.0,meteohub,2013-05-11 01:49:00,
2013-05-10 21:54:00,72.9,69.8,30.00,SSE,153,1.0,5.0,90,0.00,,,0.00,0.0,meteohub,2013-05-11 01:54:00,
2013-05-10 21:59:00,72.9,69.8,29.99,SE,144,0.0,5.0,90,0.00,,,0.00,0.0,meteohub,2013-05-11 01:59:00,
2013-05-10 22:04:00,72.9,69.8,29.99,SE,137,0.0,5.0,90,0.00,,,0.00,0.0,meteohub,2013-05-11 02:04:00,
2013-05-10 22:09:00,72.9,69.8,29.99,SE,137,0.0,3.0,90,0.00,,,0.00,0.0,meteohub,2013-05-11 02:09:00,
2013-05-10 22:14:00,72.9,69.8,29.99,ENE,72,1.0,3.0,90,0.00,,,0.00,0.0,meteohub,2013-05-11 02:14:00,
2013-05-10 22:19:00,72.9,69.8,30.00,ESE,110,0.0,2.0,90,0.00,,,0.00,0.0,meteohub,2013-05-11 02:19:00,
2013-05-10 22:24:00,72.9,69.8,30.00,SSE,159,0.0,7.0,90,0.00,,,0.00,0.0,meteohub,2013-05-11 02:24:00,
2013-05-10 22:29:00,72.9,69.8,30.00,SE,134,2.0,7.0,90,0.00,,,0.00,0.0,meteohub,2013-05-11 02:29:00,
2013-05-10 22:34:00,72.9,69.8,30.01,ESE,107,0.0,7.0,90,0.00,,,0.00,0.0,meteohub,2013-05-11 02:34:00,
2013-05-10 22:39:00,72.9,69.8,30.00,SSE,160,1.0,5.0,90,0.00,,,0.00,0.0,meteohub,2013-05-11 02:39:00,
2013-05-10 22:44:00,72.7,69.6,30.01,SSE,161,0.0,5.0,90,0.00,,,0.00,0.0,meteohub,2013-05-11 02:44:00,
2013-05-10 22:49:00,72.7,69.6,30.00,SE,125,0.0,4.0,90,0.00,,,0.00,0.0,meteohub,2013-05-11 02:49:00,
2013-05-10 22:54:00,72.7,69.6,30.00,SE,126,0.0,4.0,90,0.00,,,0.00,0.0,meteohub,2013-05-11 02:54:00,
2013-05-10 22:59:00,72.9,69.8,30.00,SW,220,0.0,4.0,90,0.00,,,0.00,0.0,meteohub,2013-05-11 02:59:00,
2013-05-10 23:05:00,72.9,69.8,30.00,SSW,207,0.0,7.0,90,0.00,,,0.00,0.0,meteohub,2013-05-11 03:05:00,
2013-05-10 23:10:00,72.9,69.8,30.00,ESE,112,1.0,7.0,90,0.00,,,0.00,0.0,meteohub,2013-05-11 03:10:00,
2013-05-10 23:15:00,72.9,69.8,30.00,SE,130,0.0,6.0,90,0.00,,,0.00,0.0,meteohub,2013-05-11 03:15:00,
2013-05-10 23:20:00,72.9,69.8,30.01,SSE,160,0.0,4.0,90,0.00,,,0.00,0.0,meteohub,2013-05-11 03:20:00,
2013-05-10 23:25:00,73.0,70.0,30.01,SSE,153,0.0,4.0,90,0.00,,,0.00,0.0,meteohub,2013-05-11 03:25:00,
2013-05-10 23:30:00,73.0,70.0,30.01,SSE,153,0.0,5.0,90,0.00,,,0.00,0.0,meteohub,2013-05-11 03:30:00,
2013-05-10 23:35:00,72.9,69.8,30.01,SE,133,1.0,5.0,90,0.00,,,0.00,0.0,meteohub,2013-05-11 03:35:00,
2013-05-10 23:40:00,72.9,69.8,30.01,South,172,0.0,4.0,90,0.00,,,0.00,0.0,meteohub,2013-05-11 03:40:00,
2013-05-10 23:45:00,72.9,69.8,30.00,ESE,123,3.0,3.0,90,0.00,,,0.00,0.0,meteohub,2013-05-11 03:45:00,
2013-05-10 23:50:00,72.9,69.8,30.00,SSE,153,0.0,3.0,90,0.00,,,0.00,0.0,meteohub,2013-05-11 03:50:00,
2013-05-10 23:55:00,72.9,69.4,30.00,SSE,154,0.0,3.0,89,0.00,,,0.00,0.0,meteohub,2013-05-11 03:55:00,